Location: Newark
(42.7133°N, 87.7910°W)
Time: 11:06:54
(UTC+00:00)

A-11 Canister half - Visible Passes

Search period start: 23 September 2019 00:00
Search period end: 03 October 2019 00:00
Orbit: 1527 x 1682 km, 47.3° (Epoch: 22 September)

Date Brightness Start Highest point End Pass type
(mag) Time Alt. Az. Time Alt. Az. Time Alt. Az.
23 Sep 10.3 07:17:38 24° ESE 07:17:38 24° ESE 07:23:01 10° ENE visible
23 Sep 9.0 09:15:56 43° SW 09:19:30 74° SSE 09:29:05 10° ENE visible
24 Sep 10.5 06:57:18 21° E 06:57:18 21° E 07:01:14 10° E visible
24 Sep 9.0 08:55:36 55° SSW 08:57:54 72° SSE 09:07:26 10° ENE visible
24 Sep 9.2 10:53:54 11° W 11:03:10 70° N 11:12:56 10° ENE visible
25 Sep 10.7 06:36:56 17° E 06:36:56 17° E 06:39:27 10° E visible
25 Sep 8.9 08:35:14 65° S 08:36:17 69° SSE 08:45:46 10° ENE visible
25 Sep 9.2 10:33:32 16° W 10:41:30 71° N 10:51:14 10° ENE visible
26 Sep 10.9 06:16:32 13° E 06:16:32 13° E 06:17:39 10° E visible
26 Sep 9.0 08:14:50 67° SE 08:14:50 67° SE 08:24:06 10° ENE visible
26 Sep 9.1 10:13:08 22° W 10:19:50 71° N 10:29:33 10° ENE visible
27 Sep 9.2 07:54:25 59° ESE 07:54:25 59° ESE 08:02:27 10° ENE visible
27 Sep 9.1 09:52:43 29° W 09:58:11 72° NNW 10:07:52 10° ENE visible
28 Sep 9.5 07:33:59 48° E 07:33:59 48° E 07:40:47 10° ENE visible
28 Sep 9.0 09:32:17 38° W 09:36:31 73° NNW 09:46:11 10° ENE visible
29 Sep 9.8 07:13:32 39° E 07:13:32 39° E 07:19:08 10° ENE visible
29 Sep 9.0 09:11:50 48° W 09:14:52 74° NNW 09:24:31 10° ENE visible
29 Sep 9.3 11:11:14 10° WNW 11:20:42 71° N 11:30:29 10° E visible
30 Sep 10.2 06:53:06 30° E 06:53:06 30° E 06:57:28 10° ENE visible
30 Sep 8.9 08:51:23 61° WNW 08:53:13 76° NNW 09:02:50 10° ENE visible
30 Sep 9.2 10:49:41 10° WNW 10:59:02 70° N 11:08:46 10° E visible
01 Oct 10.5 06:32:38 24° ENE 06:32:38 24° ENE 06:35:49 10° ENE visible
01 Oct 8.8 08:30:56 74° NW 08:31:34 77° NNW 08:41:10 10° ENE visible
01 Oct 9.2 10:29:14 15° WNW 10:37:22 70° N 10:47:05 10° E visible
02 Oct 10.7 06:12:10 18° ENE 06:12:10 18° ENE 06:14:09 10° ENE visible
02 Oct 8.9 08:10:28 76° NNE 08:10:28 76° NNE 08:19:30 10° ENE visible
02 Oct 9.2 10:08:46 21° WNW 10:15:42 69° N 10:25:23 10° E visible
